Location: Baia Mare
(47.6567°N, 23.5850°E)
Time: 17:37:28
(UTC+03:00)

ISS - Pass Details

Date: 13 February 2018
Orbit: 402 x 406 km, 51.6° (Epoch: 19 June)

Event Time Altitude Azimuth Distance (km) Brightness Sun altitude
Rises 18:40:19 0° 286° (WNW) 2,319 1.3 -9.8°
Reaches altitude 10° 18:42:50 10° 267° (W) 1,456 0.6 -10.2°
Maximum altitude 18:45:07 18° 222° (SW) 1,076 -1.0 -10.6°
Drops below altitude 10° 18:47:23 10° 178° (S) 1,451 -1.0 -11.0°
Sets 18:49:54 0° 158° (SSE) 2,307 -0.1 -11.4°
